Location: Oshawa
(43.9000°N, 78.8670°W)
Time: 08:27:15
(UTC-04:00)

Cosmos 1408 Rocket - Visible Passes

Search period start: 02 October 2014 00:00
Search period end: 12 October 2014 00:00
Orbit: 602 x 634 km, 82.6° (Epoch: 01 October)

Date Brightness Start Highest point End Pass type
(mag) Time Alt. Az. Time Alt. Az. Time Alt. Az.
02 Oct 6.0 04:59:36 10° SE 05:02:53 22° E 05:06:10 10° NE visible
02 Oct 4.2 06:36:37 10° SW 06:40:31 33° WNW 06:44:26 10° N visible
03 Oct 4.9 05:15:42 10° SSE 05:19:41 38° E 05:23:42 10° NNE visible
04 Oct 3.7 05:32:17 10° S 05:36:35 73° E 05:40:53 10° NNE visible
05 Oct 6.6 04:14:35 10° ESE 04:16:17 12° E 04:18:00 10° ENE visible
05 Oct 3.5 05:49:19 10° SSW 05:53:33 60° W 05:57:50 10° N visible
06 Oct 5.8 04:30:28 14° SE 04:33:00 22° E 04:36:18 10° NE visible
06 Oct 4.2 06:07:41 15° SW 06:10:38 32° WNW 06:14:32 10° N visible
07 Oct 4.8 04:48:35 32° SE 04:49:48 39° E 04:53:49 10° NNE visible
07 Oct 4.9 06:25:47 14° WSW 06:27:48 19° WNW 06:30:52 10° NNW visible
08 Oct 3.6 05:06:29 72° ESE 05:06:41 74° E 05:10:59 10° NNE visible
08 Oct 5.5 06:44:05 10° W 06:45:05 11° WNW 06:46:05 10° NW visible
09 Oct 6.6 03:47:03 12° ENE 03:47:03 12° ENE 03:48:09 10° ENE visible
09 Oct 3.7 05:24:14 53° NW 05:24:14 53° NW 05:27:55 10° N visible
10 Oct 6.1 04:04:42 18° ENE 04:04:42 18° ENE 04:06:25 10° NE visible
10 Oct 4.6 05:41:52 28° NW 05:41:52 28° NW 05:44:37 10° N visible
11 Oct 5.8 04:22:14 21° NE 04:22:14 21° NE 04:23:55 10° NNE visible
11 Oct 5.3 05:59:24 16° NW 05:59:24 16° NW 06:00:56 10° NNW visible
